This is the latest recevied weather packets stored in our database for station/object KI5RAB. If no packets are shown the sender has not sent any weather packets the latest 10 day(s).
| Time | Temp. | Humidity | Pressure | Rain* | Wind** | Luminosity | Snow |
|---|---|---|---|---|---|---|---|
| 1777426028 | 30° C | 72% | 1012.8 hPa | 0 mm | - | 0 W/m² | - |
| 1777425723 | 30° C | 72% | 1012.5 hPa | 0 mm | - | 0 W/m² | - |
| 1777425418 | 30° C | 72% | 1012.6 hPa | 0 mm | - | 0 W/m² | - |
| 1777425114 | 30.56° C | 71% | 1012.4 hPa | 0 mm | - | 1 W/m² | - |
| 1777424811 | 30.56° C | 71% | 1012.7 hPa | 0 mm | - | 2 W/m² | - |
| 1777424506 | 30.56° C | 70% | 1012.4 hPa | 0 mm | - | 3 W/m² | - |
| 1777424202 | 30.56° C | 69% | 1012.4 hPa | 0 mm | - | 5 W/m² | - |
| 1777423899 | 30.56° C | 67% | 1012.4 hPa | 0 mm | - | 8 W/m² | - |
| 1777423596 | 30.56° C | 68% | 1012.3 hPa | 0 mm | - | 10 W/m² | - |
| 1777423291 | 30.56° C | 68% | 1012.1 hPa | 0 mm | - | 11 W/m² | - |
| 1777422986 | 30.56° C | 67% | 1012.2 hPa | 0 mm | - | 13 W/m² | - |
| 1777422681 | 31.11° C | 68% | 1012.2 hPa | 0 mm | - | 17 W/m² | - |
| 1777422376 | 31.11° C | 67% | 1012.3 hPa | 0 mm | - | 21 W/m² | - |
| 1777422072 | 31.67° C | 65% | 1012.3 hPa | 0 mm | - | 25 W/m² | - |
| 1777421766 | 31.67° C | 65% | 1012.3 hPa | 0 mm | - | 41 W/m² | - |
| 1777421462 | 31.67° C | 66% | 1012.4 hPa | 0 mm | - | 35 W/m² | - |
| 1777421158 | 32.22° C | 64% | 1012.3 hPa | 0 mm | - | 72 W/m² | - |
| 1777420855 | 32.22° C | 65% | 1012.2 hPa | 0 mm | - | 95 W/m² | - |
| 1777420551 | 32.22° C | 66% | 1012.3 hPa | 0 mm | - | 91 W/m² | - |
| 1777420247 | 32.22° C | 63% | 1012.2 hPa | 0 mm | - | 100 W/m² | - |
| 1777419942 | 32.22° C | 63% | 1012.2 hPa | 0 mm | - | 109 W/m² | - |
| 1777419640 | 32.22° C | 64% | 1012.2 hPa | 0 mm | - | 121 W/m² | - |
| 1777419338 | 32.22° C | 65% | 1012 hPa | 0 mm | - | 103 W/m² | - |
| 1777419037 | 32.78° C | 65% | 1012.3 hPa | 0 mm | - | 100 W/m² | - |
| 1777418736 | 32.78° C | 65% | 1012.2 hPa | 0 mm | - | 110 W/m² | - |
* Rain latest hour (hover to see other rain measurements)
** Current wind speed in m/s (hover to see current wind gust speed)